Voltar ao catálogo

STARLINK-35080

AtivoComunicaçõesSSO
NORAD 65437·PAYLOAD·🇺🇸 United States

Lançado Sep 3, 2025 de Vandenberg Space Force Base

Loading…

Próximas Passagens (próximas 24 horas)

TLE

AtualizadoSource: CelesTrak SupGP

Época: Sep 14, 2026, 20:58 UTC

1 65437C 25194D   26257.87409722  .00030198  00000+0  93773-3 0  2576
2 65437  97.2845 107.5519 0001679  94.4000 229.7258 15.33412942    10

Acompanhe STARLINK-35080 em tempo real com AllMySat

Download on the App Store